"Pseudo-MPEC" for G20534

Created 2024 Nov 26 18:31:07 UT using Find_Orb

Click here for an explanation of pseudo-MPECs

 
 Astrometry: 
     G20534 *'C2024 11 04.04488 01 46 28.71 +16 57 26.6    ~B8E2 21.4 GVNEOCP309
     G20534  'C2024 11 04.04614 01 46 28.54 +16 57 25.8    ~B8E2 21.4 GVNEOCP309
     G20534  'C2024 11 04.04736 01 46 28.39 +16 57 25.9    ~B8E2 21.5 GVNEOCP309
     G20534  'C2024 11 04.04859 01 46 28.21 +16 57 25.1    ~B8E2 21.4 GVNEOCP309
     G20534  'C2024 11 04.04982 01 46 28.05 +16 57 24.7    ~B8E2 21.4 GVNEOCP309
     G20534  'C2024 11 04.05107 01 46 27.87 +16 57 24.1    ~B8E2 21.2 GVNEOCP309
     G20534  'C2024 11 04.05230 01 46 27.71 +16 57 23.9    ~B8E2 21.4 GVNEOCP309
     G20534  'C2024 11 04.05354 01 46 27.55 +16 57 23.2    ~B8E2 21.5 GVNEOCP309
     G20534  'C2024 11 04.05477 01 46 27.38 +16 57 22.6    ~B8E2 21.6 GVNEOCP309
     G20534  'C2024 11 04.05602 01 46 27.21 +16 57 22.3    ~B8E2 21.6 GVNEOCP309

Station data:
(309) Cerro Paranal  (S24.627210 W70.404310)  Chile.  Observer M. Altmann.
   Measurer S. Deen. 2.65-m Ritchey-Chrétien + CCD.

Orbital elements:  G20534
   Perihelion 2025 May 10.02134 +/- 204 TT =  0:30:44 (JD 2460805.52134)
Epoch 2024 Nov  4.0 TT = JDT 2460618.5   Earth MOID: 0.2223   Me: 0.0485
M 251.20864723 +/- 100              (J2000 ecliptic)             AutoNEOCP
n   0.58170554 +/- 0.328            Peri.  171.50358 +/- 52
a   1.42123943 +/- 0.534            Node    24.37769 +/- 39
e   0.6726219 +/- 0.247             Incl.   14.54356 +/- 56
P   1.694/618.858d         H 19.39  G  0.15   U 12.0  SR
q 0.46528254 +/- 0.79    Q 2.37719631 +/- 24.3
From 10 observations 2024 Nov. 4 (16.0 min); mean residual 0".12
Residuals in arcseconds: 
241104 309  .04-  .03+    241104 309  .04+  .04+    241104 309  .01+  .15-    
241104 309  .04-  .28-    241104 309  .12-  .08-    241104 309  .01-  .03+    
241104 309  .16+  .29+    241104 309  .04-  .19+    
241104 309  .04-  .04-    241104 309  .07+  .03-    

Ephemerides (geocentric):
Date (UTC) HH   RA             Dec           delta  r     elong  mag " sig PA
---- --------  ------------   ------------  ------ ------ -----  --- --------
2024 11 26 19  01 03 13.255   +14 22 13.01  1.1661 1.9900 135.0 22.2  29d 102
2024 11 26 20  01 03 09.649   +14 21 58.10  1.1663 1.9898 134.9 22.2  29d 102
2024 11 26 21  01 03 06.048   +14 21 43.22  1.1665 1.9896 134.9 22.2  29d 102
2024 11 26 22  01 03 02.452   +14 21 28.35  1.1667 1.9893 134.8 22.2  29d 102
2024 11 26 23  01 02 58.861   +14 21 13.49  1.1669 1.9891 134.7 22.2  29d 102
2024 11 27 00  01 02 55.276   +14 20 58.66  1.1671 1.9889 134.7 22.2  29d 102
2024 11 27 01  01 02 51.696   +14 20 43.84  1.1673 1.9886 134.6 22.2  29d 102
2024 11 27 02  01 02 48.121   +14 20 29.04  1.1675 1.9884 134.6 22.2  29d 102
2024 11 27 03  01 02 44.551   +14 20 14.25  1.1677 1.9882 134.5 22.2  29d 102
2024 11 27 04  01 02 40.986   +14 19 59.48  1.1678 1.9879 134.5 22.2  29d 102
2024 11 27 05  01 02 37.427   +14 19 44.73  1.1680 1.9877 134.4 22.2  29d 102
2024 11 27 06  01 02 33.873   +14 19 30.00  1.1682 1.9875 134.3 22.2  29d 102
2024 11 27 07  01 02 30.324   +14 19 15.28  1.1684 1.9872 134.3 22.2  29d 102
2024 11 27 08  01 02 26.780   +14 19 00.59  1.1686 1.9870 134.2 22.2  29d 102
2024 11 27 09  01 02 23.241   +14 18 45.91  1.1688 1.9868 134.2 22.2  29d 102
2024 11 27 10  01 02 19.707   +14 18 31.24  1.1690 1.9865 134.1 22.2  29d 102
2024 11 27 11  01 02 16.179   +14 18 16.60  1.1692 1.9863 134.1 22.2  29d 102
2024 11 27 12  01 02 12.656   +14 18 01.97  1.1694 1.9861 134.0 22.2  29d 102
2024 11 27 13  01 02 09.138   +14 17 47.36  1.1696 1.9858 134.0 22.2  29d 102
2024 11 27 14  01 02 05.625   +14 17 32.77  1.1698 1.9856 133.9 22.2  29d 102
2024 11 27 15  01 02 02.118   +14 17 18.20  1.1700 1.9854 133.8 22.2  29d 102
2024 11 27 16  01 01 58.616   +14 17 03.64  1.1702 1.9851 133.8 22.2  29d 102
2024 11 27 17  01 01 55.118   +14 16 49.10  1.1704 1.9849 133.7 22.3  29d 102
2024 11 27 18  01 01 51.627   +14 16 34.58  1.1706 1.9847 133.7 22.3  29d 102
2024 11 27 19  01 01 48.140   +14 16 20.08  1.1708 1.9844 133.6 22.3  29d 102
2024 11 27 20  01 01 44.659   +14 16 05.59  1.1710 1.9842 133.6 22.3  29d 102
2024 11 27 21  01 01 41.182   +14 15 51.12  1.1712 1.9840 133.5 22.3  29d 102
2024 11 27 22  01 01 37.711   +14 15 36.67  1.1714 1.9837 133.4 22.3  29d 102
2024 11 27 23  01 01 34.246   +14 15 22.24  1.1716 1.9835 133.4 22.3  29d 102
2024 11 28 00  01 01 30.785   +14 15 07.83  1.1718 1.9833 133.3 22.3  29d 102
2024 11 28 01  01 01 27.330   +14 14 53.44  1.1720 1.9830 133.3 22.3  29d 102
2024 11 28 02  01 01 23.880   +14 14 39.06  1.1722 1.9828 133.2 22.3  29d 102
2024 11 28 03  01 01 20.435   +14 14 24.70  1.1724 1.9826 133.2 22.3  29d 102
2024 11 28 04  01 01 16.995   +14 14 10.36  1.1726 1.9823 133.1 22.3  29d 102
2024 11 28 05  01 01 13.561   +14 13 56.04  1.1728 1.9821 133.1 22.3  29d 102
2024 11 28 06  01 01 10.132   +14 13 41.74  1.1730 1.9818 133.0 22.3  29d 102
2024 11 28 07  01 01 06.708   +14 13 27.45  1.1732 1.9816 132.9 22.3  29d 102
2024 11 28 08  01 01 03.290   +14 13 13.18  1.1734 1.9814 132.9 22.3  29d 102
2024 11 28 09  01 00 59.876   +14 12 58.93  1.1736 1.9811 132.8 22.3  29d 102
2024 11 28 10  01 00 56.468   +14 12 44.70  1.1738 1.9809 132.8 22.3  29d 102
2024 11 28 11  01 00 53.065   +14 12 30.49  1.1740 1.9807 132.7 22.3  29d 102
2024 11 28 12  01 00 49.668   +14 12 16.30  1.1742 1.9804 132.7 22.3  29d 102
2024 11 28 13  01 00 46.275   +14 12 02.13  1.1744 1.9802 132.6 22.3  29d 102
2024 11 28 14  01 00 42.888   +14 11 47.97  1.1746 1.9800 132.6 22.3  29d 102
2024 11 28 15  01 00 39.506   +14 11 33.83  1.1748 1.9797 132.5 22.3  30d 102
2024 11 28 16  01 00 36.130   +14 11 19.72  1.1751 1.9795 132.4 22.3  30d 102
2024 11 28 17  01 00 32.759   +14 11 05.62  1.1753 1.9793 132.4 22.3  30d 102
2024 11 28 18  01 00 29.393   +14 10 51.53  1.1755 1.9790 132.3 22.3  30d 102